,,,PA_Meas_PMT16A,,PR_Meas_QMR101_102,,RH_Meas_QMH101,,SR_Meas_QMS101,,TA_Meas_QMH101,,GenWind,,GenWind,
date,time,status,PA,status,PR,status,RH,status,SR,status,TA,status,DirAvg,status,SpdAvg,
2010-04-28, 00:00:04,VALID,1012.81,VALID,0,VALID,102.124,VALID,0,VALID,24.2981,VALID,332,VALID,0,
2010-04-28, 00:01:04,VALID,1012.8,VALID,0,VALID,102.162,VALID,0,VALID,24.2963,VALID,332,VALID,0,
2010-04-28, 00:02:04,VALID,1012.78,VALID,0,VALID,102.147,VALID,0,VALID,24.2963,VALID,332,VALID,0,
2010-04-28, 00:03:04,VALID,1012.78,VALID,0,VALID,102.155,VALID,0,VALID,24.3176,VALID,332,VALID,0,
2010-04-28, 00:04:04,VALID,1012.78,VALID,0,VALID,102.147,VALID,0,VALID,24.2981,VALID,332,VALID,0,
2010-04-28, 00:05:04,VALID,1012.79,VALID,0,VALID,102.162,VALID,0.105969,VALID,24.3176,VALID,332,VALID,0,
2010-04-28, 00:06:04,VALID,1012.77,VALID,0,VALID,102.177,VALID,0,VALID,24.2768,VALID,332,VALID,0,
2010-04-28, 00:07:04,VALID,1012.76,VALID,0,VALID,102.177,VALID,0,VALID,24.2981,VALID,332,VALID,0,
2010-04-28, 00:08:04,VALID,1012.78,VALID,0,VALID,102.177,VALID,0,VALID,24.2786,VALID,332,VALID,0,
2010-04-28, 00:09:04,VALID,1012.83,VALID,0,VALID,102.162,VALID,0,VALID,24.2786,VALID,332,VALID,0,
2010-04-28, 00:10:04,VALID,1012.82,VALID,0,VALID,102.155,VALID,0.105969,VALID,24.2786,VALID,332,VALID,0,
2010-04-28, 00:11:04,VALID,1012.84,VALID,0,VALID,102.177,VALID,0,VALID,24.2591,VALID,332,VALID,0,
2010-04-28, 00:12:04,VALID,1012.82,VALID,0,VALID,102.162,VALID,0,VALID,24.2396,VALID,332,VALID,0,
2010-04-28, 00:13:04,VALID,1012.84,VALID,0,VALID,102.162,VALID,0,VALID,24.2202,VALID,332,VALID,0,
2010-04-28, 00:14:04,VALID,1012.86,VALID,0,VALID,102.17,VALID,0,VALID,24.2007,VALID,332,VALID,0,
2010-04-28, 00:15:04,VALID,1012.86,VALID,0,VALID,102.177,VALID,0.105969,VALID,24.2007,VALID,332,VALID,0,
2010-04-28, 00:16:04,VALID,1012.86,VALID,0,VALID,102.17,VALID,0,VALID,24.1793,VALID,332,VALID,0,
2010-04-28, 00:17:04,VALID,1012.86,VALID,0,VALID,102.17,VALID,0,VALID,24.1793,VALID,332,VALID,0,
2010-04-28, 00:18:04,VALID,1012.83,VALID,0,VALID,102.17,VALID,0,VALID,24.1793,VALID,332,VALID,0,
2010-04-28, 00:19:04,VALID,1012.83,VALID,0,VALID,102.162,VALID,0,VALID,24.2202,VALID,332,VALID,0,
2010-04-28, 00:20:04,VALID,1012.83,VALID,0,VALID,102.147,VALID,0,VALID,24.1988,VALID,332,VALID,0,
2010-04-28, 00:21:04,VALID,1012.83,VALID,0,VALID,102.193,VALID,0,VALID,24.2202,VALID,332,VALID,0,
2010-04-28, 00:22:04,VALID,1012.83,VALID,0,VALID,102.155,VALID,0,VALID,24.1988,VALID,332,VALID,0,
2010-04-28, 00:23:04,VALID,1012.84,VALID,0,VALID,102.177,VALID,0,VALID,24.2202,VALID,332,VALID,0,
2010-04-28, 00:24:04,VALID,1012.83,VALID,0,VALID,102.177,VALID,0,VALID,24.2202,VALID,332,VALID,0,
2010-04-28, 00:25:04,VALID,1012.81,VALID,0,VALID,102.185,VALID,0,VALID,24.2202,VALID,332,VALID,0,
2010-04-28, 00:26:04,VALID,1012.84,VALID,0,VALID,102.17,VALID,0,VALID,24.2183,VALID,332,VALID,0,
2010-04-28, 00:27:04,VALID,1012.83,VALID,0,VALID,102.17,VALID,0,VALID,24.2396,VALID,332,VALID,0,
2010-04-28, 00:28:04,VALID,1012.82,VALID,0,VALID,102.193,VALID,0,VALID,24.2396,VALID,332,VALID,0,
2010-04-28, 00:29:04,VALID,1012.83,VALID,0,VALID,102.177,VALID,0.105969,VALID,24.2183,VALID,332,VALID,0,
2010-04-28, 00:30:04,VALID,1012.82,VALID,0,VALID,102.193,VALID,0,VALID,24.2202,VALID,332,VALID,0,
2010-04-28, 00:31:04,VALID,1012.82,VALID,0,VALID,102.185,VALID,0,VALID,24.2396,VALID,332,VALID,0,
2010-04-28, 00:32:04,VALID,1012.81,VALID,0,VALID,102.2,VALID,0,VALID,24.1988,VALID,332,VALID,0,
2010-04-28, 00:33:04,VALID,1012.78,VALID,0,VALID,102.193,VALID,0,VALID,24.2183,VALID,332,VALID,0,
2010-04-28, 00:34:04,VALID,1012.78,VALID,0,VALID,102.193,VALID,0,VALID,24.2183,VALID,332,VALID,0,
2010-04-28, 00:35:04,VALID,1012.77,VALID,0,VALID,102.177,VALID,0,VALID,24.2183,VALID,332,VALID,0,
2010-04-28, 00:36:04,VALID,1012.75,VALID,0,VALID,102.177,VALID,0,VALID,24.2183,VALID,332,VALID,0,
2010-04-28, 00:37:04,VALID,1012.73,VALID,0,VALID,102.193,VALID,0,VALID,24.1988,VALID,332,VALID,0,
2010-04-28, 00:38:04,VALID,1012.72,VALID,0,VALID,102.193,VALID,0,VALID,24.1988,VALID,332,VALID,0,
2010-04-28, 00:39:04,VALID,1012.68,VALID,0,VALID,102.17,VALID,0,VALID,24.2183,VALID,332,VALID,0,
2010-04-28, 00:40:04,VALID,1012.66,VALID,0,VALID,102.162,VALID,0,VALID,24.2183,VALID,332,VALID,0,
2010-04-28, 00:41:04,VALID,1012.67,VALID,0,VALID,102.193,VALID,0.105969,VALID,24.2396,VALID,332,VALID,0,
2010-04-28, 00:42:04,VALID,1012.64,VALID,0,VALID,102.2,VALID,0,VALID,24.2396,VALID,332,VALID,0,
2010-04-28, 00:43:04,VALID,1012.65,VALID,0,VALID,102.162,VALID,0,VALID,24.2183,VALID,332,VALID,0,
2010-04-28, 00:44:04,VALID,1012.63,VALID,0,VALID,102.162,VALID,0,VALID,24.2591,VALID,332,VALID,0,
2010-04-28, 00:45:04,VALID,1012.62,VALID,0,VALID,102.17,VALID,0,VALID,24.2591,VALID,332,VALID,0,
2010-04-28, 00:46:04,VALID,1012.61,VALID,0,VALID,102.162,VALID,0,VALID,24.2591,VALID,332,VALID,0,
2010-04-28, 00:47:04,VALID,1012.59,VALID,0,VALID,102.17,VALID,0,VALID,24.2786,VALID,332,VALID,0,
2010-04-28, 00:48:04,VALID,1012.59,VALID,0,VALID,102.155,VALID,0,VALID,24.2768,VALID,332,VALID,0,
2010-04-28, 00:49:04,VALID,1012.56,VALID,0,VALID,102.162,VALID,0,VALID,24.2768,VALID,332,VALID,0,
2010-04-28, 00:50:04,VALID,1012.58,VALID,0,VALID,102.185,VALID,0.105969,VALID,24.3176,VALID,332,VALID,0,
2010-04-28, 00:51:04,VALID,1012.55,VALID,0,VALID,102.177,VALID,0,VALID,24.2768,VALID,332,VALID,0,
2010-04-28, 00:52:04,VALID,1012.53,VALID,0,VALID,102.177,VALID,0,VALID,24.3176,VALID,332,VALID,0,
2010-04-28, 00:53:04,VALID,1012.52,VALID,0,VALID,102.2,VALID,0,VALID,24.2768,VALID,332,VALID,0,
2010-04-28, 00:54:04,VALID,1012.51,VALID,0,VALID,102.2,VALID,0,VALID,24.3176,VALID,332,VALID,0,
2010-04-28, 00:55:04,VALID,1012.5,VALID,0,VALID,102.193,VALID,0,VALID,24.2981,VALID,332,VALID,0,
2010-04-28, 00:56:04,VALID,1012.48,VALID,0,VALID,102.193,VALID,0,VALID,24.2981,VALID,332,VALID,0,
2010-04-28, 00:57:04,VALID,1012.47,VALID,0,VALID,102.193,VALID,0,VALID,24.3176,VALID,332,VALID,0,
2010-04-28, 00:58:04,VALID,1012.47,VALID,0,VALID,102.185,VALID,0,VALID,24.3371,VALID,332,VALID,0,
2010-04-28, 00:59:04,VALID,1012.46,VALID,0,VALID,102.17,VALID,0,VALID,24.3371,VALID,332,VALID,0,
2010-04-28, 01:00:04,VALID,1012.46,VALID,0,VALID,102.177,VALID,0,VALID,24.3566,VALID,332,VALID,0,
2010-04-28, 01:01:04,VALID,1012.45,VALID,0,VALID,102.177,VALID,0,VALID,24.3352,VALID,332,VALID,0,
2010-04-28, 01:02:04,VALID,1012.41,VALID,0,VALID,102.185,VALID,0,VALID,24.3352,VALID,332,VALID,0,
2010-04-28, 01:03:04,VALID,1012.39,VALID,0,VALID,102.177,VALID,0,VALID,24.3547,VALID,332,VALID,0,
2010-04-28, 01:04:04,VALID,1012.38,VALID,0,VALID,102.177,VALID,0,VALID,24.3547,VALID,332,VALID,0,
2010-04-28, 01:05:04,VALID,1012.33,VALID,0,VALID,102.2,VALID,0,VALID,24.3547,VALID,332,VALID,0,
2010-04-28, 01:06:04,VALID,1012.33,VALID,0,VALID,102.177,VALID,0,VALID,24.3547,VALID,332,VALID,0,
2010-04-28, 01:07:04,VALID,1012.31,VALID,0,VALID,102.185,VALID,0,VALID,24.3761,VALID,332,VALID,0,
2010-04-28, 01:08:04,VALID,1012.25,VALID,0,VALID,102.17,VALID,0,VALID,24.3761,VALID,332,VALID,0,
2010-04-28, 01:09:04,VALID,1012.27,VALID,0,VALID,102.177,VALID,0.105969,VALID,24.3742,VALID,332,VALID,0,
2010-04-28, 01:10:04,VALID,1012.21,VALID,0,VALID,102.193,VALID,0.105969,VALID,24.3742,VALID,332,VALID,0,
2010-04-28, 01:11:04,VALID,1012.19,VALID,0,VALID,102.2,VALID,0,VALID,24.3547,VALID,332,VALID,0,
2010-04-28, 01:12:04,VALID,1012.2,VALID,0,VALID,102.185,VALID,0,VALID,24.3566,VALID,332,VALID,0,
2010-04-28, 01:13:04,VALID,1012.13,VALID,0,VALID,102.2,VALID,0,VALID,24.3352,VALID,332,VALID,0,
2010-04-28, 01:14:04,VALID,1012.12,VALID,0,VALID,102.193,VALID,0,VALID,24.3352,VALID,332,VALID,0,
2010-04-28, 01:15:04,VALID,1012.1,VALID,0,VALID,102.185,VALID,0,VALID,24.3547,VALID,332,VALID,0,
2010-04-28, 01:16:04,VALID,1012.05,VALID,0,VALID,102.223,VALID,0,VALID,24.3547,VALID,332,VALID,0,
2010-04-28, 01:17:04,VALID,1012.05,VALID,0,VALID,102.2,VALID,0,VALID,24.3352,VALID,332,VALID,0,
2010-04-28, 01:18:04,VALID,1012.02,VALID,0,VALID,102.216,VALID,0,VALID,24.3761,VALID,332,VALID,0,
2010-04-28, 01:19:04,VALID,1011.98,VALID,0,VALID,102.2,VALID,0,VALID,24.3566,VALID,332,VALID,0,
2010-04-28, 01:20:04,VALID,1011.96,VALID,0,VALID,102.208,VALID,0.105969,VALID,24.3352,VALID,332,VALID,0,
2010-04-28, 01:21:04,VALID,1011.96,VALID,0,VALID,102.223,VALID,0,VALID,24.3158,VALID,332,VALID,0,
2010-04-28, 01:22:04,VALID,1011.94,VALID,0,VALID,102.223,VALID,0.105969,VALID,24.3158,VALID,332,VALID,0,
2010-04-28, 01:23:04,VALID,1011.94,VALID,0,VALID,102.223,VALID,0.105969,VALID,24.3371,VALID,332,VALID,0,
2010-04-28, 01:24:04,VALID,1011.89,VALID,0,VALID,102.2,VALID,0.105969,VALID,24.2963,VALID,332,VALID,0,
2010-04-28, 01:25:04,VALID,1011.9,VALID,0,VALID,102.193,VALID,0,VALID,24.3176,VALID,332,VALID,0,
2010-04-28, 01:26:04,VALID,1011.89,VALID,0,VALID,102.2,VALID,0,VALID,24.2981,VALID,332,VALID,0,
2010-04-28, 01:27:04,VALID,1011.9,VALID,0,VALID,102.193,VALID,0,VALID,24.2768,VALID,332,VALID,0,
2010-04-28, 01:28:04,VALID,1011.86,VALID,0,VALID,102.193,VALID,0,VALID,24.2786,VALID,332,VALID,0,
2010-04-28, 01:29:04,VALID,1011.87,VALID,0,VALID,102.185,VALID,0.105969,VALID,24.2981,VALID,332,VALID,0,
2010-04-28, 01:30:04,VALID,1011.83,VALID,0,VALID,102.155,VALID,0,VALID,24.2981,VALID,332,VALID,0,
2010-04-28, 01:31:04,VALID,1011.81,VALID,0,VALID,102.155,VALID,0.105969,VALID,24.2981,VALID,332,VALID,0,
2010-04-28, 01:32:04,VALID,1011.79,VALID,0,VALID,102.147,VALID,0.105969,VALID,24.2768,VALID,332,VALID,0,
2010-04-28, 01:33:04,VALID,1011.78,VALID,0,VALID,102.147,VALID,0.105969,VALID,24.2573,VALID,332,VALID,0,
2010-04-28, 01:34:04,VALID,1011.74,VALID,0,VALID,102.162,VALID,0.105969,VALID,24.2768,VALID,332,VALID,0,
2010-04-28, 01:35:04,VALID,1011.74,VALID,0,VALID,102.155,VALID,0.105969,VALID,24.2768,VALID,332,VALID,0,
2010-04-28, 01:36:04,VALID,1011.76,VALID,0,VALID,102.155,VALID,0.105969,VALID,24.2963,VALID,332,VALID,0,
2010-04-28, 01:37:04,VALID,1011.72,VALID,0,VALID,102.132,VALID,0.105969,VALID,24.3158,VALID,332,VALID,0,
2010-04-28, 01:38:05,VALID,1011.71,VALID,0,VALID,102.124,VALID,0.105969,VALID,24.3352,VALID,332,VALID,0,
2010-04-28, 01:39:05,VALID,1011.7,VALID,0,VALID,102.139,VALID,0.105969,VALID,24.3352,VALID,332,VALID,0,
2010-04-28, 01:40:05,VALID,1011.68,VALID,0,VALID,102.124,VALID,0.105969,VALID,24.3547,VALID,332,VALID,0,
2010-04-28, 01:41:05,VALID,1011.65,VALID,0,VALID,102.124,VALID,0.105969,VALID,24.3742,VALID,332,VALID,0,
2010-04-28, 01:42:05,VALID,1011.65,VALID,0,VALID,102.147,VALID,0.105969,VALID,24.3742,VALID,332,VALID,0,
2010-04-28, 01:43:05,VALID,1011.62,VALID,0,VALID,102.147,VALID,0.105969,VALID,24.3742,VALID,332,VALID,0,
2010-04-28, 01:44:05,VALID,1011.61,VALID,0,VALID,102.139,VALID,0.105969,VALID,24.3956,VALID,332,VALID,0,
2010-04-28, 01:45:05,VALID,1011.58,VALID,0,VALID,102.139,VALID,0.105969,VALID,24.3742,VALID,332,VALID,0,
2010-04-28, 01:46:05,VALID,1011.54,VALID,0,VALID,102.124,VALID,0,VALID,24.3761,VALID,332,VALID,0,
2010-04-28, 01:47:05,VALID,1011.56,VALID,0,VALID,102.147,VALID,0,VALID,24.3761,VALID,332,VALID,0,
2010-04-28, 01:48:05,VALID,1011.57,VALID,0,VALID,102.147,VALID,0,VALID,24.3761,VALID,332,VALID,0,
2010-04-28, 01:49:05,VALID,1011.54,VALID,0,VALID,102.147,VALID,0,VALID,24.3566,VALID,332,VALID,0,
2010-04-28, 01:50:05,VALID,1011.5,VALID,0,VALID,102.132,VALID,0,VALID,24.3761,VALID,332,VALID,0,
2010-04-28, 01:51:05,VALID,1011.5,VALID,0,VALID,102.132,VALID,0,VALID,24.3761,VALID,332,VALID,0,
2010-04-28, 01:52:05,VALID,1011.47,VALID,0,VALID,102.139,VALID,0,VALID,24.3761,VALID,332,VALID,0,
2010-04-28, 01:53:05,VALID,1011.46,VALID,0,VALID,102.139,VALID,0,VALID,24.3956,VALID,332,VALID,0,
2010-04-28, 01:54:05,VALID,1011.44,VALID,0,VALID,102.155,VALID,0,VALID,24.3974,VALID,332,VALID,0,
2010-04-28, 01:55:05,VALID,1011.45,VALID,0,VALID,102.17,VALID,0,VALID,24.3761,VALID,332,VALID,0,
2010-04-28, 01:56:05,VALID,1011.44,VALID,0,VALID,102.162,VALID,0,VALID,24.3779,VALID,332,VALID,0,
2010-04-28, 01:57:05,VALID,1011.45,VALID,0,VALID,102.17,VALID,0,VALID,24.3761,VALID,332,VALID,0,
2010-04-28, 01:58:05,VALID,1011.42,VALID,0,VALID,102.162,VALID,0,VALID,24.3779,VALID,332,VALID,0,
2010-04-28, 01:59:05,VALID,1011.43,VALID,0,VALID,102.17,VALID,0,VALID,24.3761,VALID,332,VALID,0,
2010-04-28, 02:00:05,VALID,1011.42,VALID,0,VALID,102.17,VALID,0,VALID,24.4169,VALID,332,VALID,0,
2010-04-28, 02:01:05,VALID,1011.44,VALID,0,VALID,102.177,VALID,0,VALID,24.3937,VALID,332,VALID,0,
2010-04-28, 02:02:05,VALID,1011.45,VALID,0,VALID,102.185,VALID,0.105969,VALID,24.3937,VALID,332,VALID,0,
2010-04-28, 02:03:05,VALID,1011.43,VALID,0,VALID,102.177,VALID,0,VALID,24.3956,VALID,332,VALID,0,
2010-04-28, 02:04:05,VALID,1011.43,VALID,0,VALID,102.2,VALID,0,VALID,24.415,VALID,332,VALID,0,
2010-04-28, 02:05:05,VALID,1011.44,VALID,0,VALID,102.155,VALID,0,VALID,24.4345,VALID,332,VALID,0,
2010-04-28, 02:06:05,VALID,1011.44,VALID,0,VALID,102.177,VALID,0,VALID,24.4345,VALID,332,VALID,0,
2010-04-28, 02:07:05,VALID,1011.45,VALID,0,VALID,102.177,VALID,0,VALID,24.3937,VALID,332,VALID,0,
2010-04-28, 02:08:05,VALID,1011.44,VALID,0,VALID,102.162,VALID,0,VALID,24.4345,VALID,332,VALID,0,
2010-04-28, 02:09:05,VALID,1011.44,VALID,0,VALID,102.17,VALID,0.105969,VALID,24.454,VALID,332,VALID,0,
2010-04-28, 02:10:05,VALID,1011.43,VALID,0,VALID,102.193,VALID,0,VALID,24.4327,VALID,332,VALID,0,
2010-04-28, 02:11:05,VALID,1011.43,VALID,0,VALID,102.177,VALID,0,VALID,24.4327,VALID,332,VALID,0,
2010-04-28, 02:12:05,VALID,1011.42,VALID,0,VALID,102.177,VALID,0,VALID,24.4735,VALID,332,VALID,0,
2010-04-28, 02:13:05,VALID,1011.42,VALID,0,VALID,102.17,VALID,0.105969,VALID,24.454,VALID,332,VALID,0,
2010-04-28, 02:14:05,VALID,1011.41,VALID,0,VALID,102.185,VALID,0,VALID,24.4327,VALID,332,VALID,0,
2010-04-28, 02:15:05,VALID,1011.43,VALID,0,VALID,102.185,VALID,0.105969,VALID,24.4327,VALID,332,VALID,0,
2010-04-28, 02:16:05,VALID,1011.39,VALID,0,VALID,102.193,VALID,0,VALID,24.4345,VALID,332,VALID,0,
2010-04-28, 02:17:05,VALID,1011.4,VALID,0,VALID,102.193,VALID,0,VALID,24.4132,VALID,332,VALID,0,
2010-04-28, 02:18:05,VALID,1011.38,VALID,0,VALID,102.2,VALID,0,VALID,24.415,VALID,332,VALID,0,
2010-04-28, 02:19:05,VALID,1011.39,VALID,0,VALID,102.177,VALID,0.105969,VALID,24.3956,VALID,332,VALID,0,
2010-04-28, 02:20:05,VALID,1011.38,VALID,0,VALID,102.185,VALID,0,VALID,24.3761,VALID,332,VALID,0,
2010-04-28, 02:21:05,VALID,1011.37,VALID,0,VALID,102.2,VALID,0,VALID,24.3742,VALID,332,VALID,0,
2010-04-28, 02:22:05,VALID,1011.36,VALID,0,VALID,102.185,VALID,0,VALID,24.3761,VALID,332,VALID,0,
2010-04-28, 02:23:05,VALID,1011.35,VALID,0,VALID,102.193,VALID,0,VALID,24.3547,VALID,332,VALID,0,
2010-04-28, 02:24:05,VALID,1011.36,VALID,0,VALID,102.185,VALID,0,VALID,24.3566,VALID,332,VALID,0,
2010-04-28, 02:25:05,VALID,1011.35,VALID,0,VALID,102.208,VALID,0,VALID,24.3371,VALID,332,VALID,0,
2010-04-28, 02:26:05,VALID,1011.34,VALID,0,VALID,102.193,VALID,0,VALID,24.3176,VALID,332,VALID,0,
2010-04-28, 02:27:05,VALID,1011.35,VALID,0,VALID,102.193,VALID,0.105969,VALID,24.2768,VALID,332,VALID,0,
2010-04-28, 02:28:05,VALID,1011.31,VALID,0,VALID,102.193,VALID,0,VALID,24.2786,VALID,332,VALID,0,
2010-04-28, 02:29:05,VALID,1011.3,VALID,0,VALID,102.2,VALID,0.105969,VALID,24.2786,VALID,332,VALID,0,
2010-04-28, 02:30:05,VALID,1011.31,VALID,0,VALID,102.216,VALID,0,VALID,24.2591,VALID,332,VALID,0,
2010-04-28, 02:31:05,VALID,1011.32,VALID,0,VALID,102.208,VALID,0,VALID,24.2591,VALID,332,VALID,0,
2010-04-28, 02:32:05,VALID,1011.32,VALID,0,VALID,102.208,VALID,0,VALID,24.2786,VALID,332,VALID,0,
2010-04-28, 02:33:05,VALID,1011.31,VALID,0,VALID,102.208,VALID,0,VALID,24.2378,VALID,332,VALID,0,
2010-04-28, 02:34:05,VALID,1011.34,VALID,0,VALID,102.216,VALID,0,VALID,24.2378,VALID,332,VALID,0,
2010-04-28, 02:35:05,VALID,1011.35,VALID,0,VALID,102.231,VALID,0,VALID,24.2396,VALID,332,VALID,0,
2010-04-28, 02:36:05,VALID,1011.35,VALID,0,VALID,102.223,VALID,0,VALID,24.2396,VALID,332,VALID,0,
2010-04-28, 02:37:05,VALID,1011.37,VALID,0,VALID,102.216,VALID,0,VALID,24.2396,VALID,332,VALID,0,
2010-04-28, 02:38:05,VALID,1011.36,VALID,0,VALID,102.2,VALID,0.105969,VALID,24.2378,VALID,332,VALID,0,
2010-04-28, 02:39:05,VALID,1011.36,VALID,0,VALID,102.208,VALID,0,VALID,24.2396,VALID,332,VALID,0,
2010-04-28, 02:40:05,VALID,1011.37,VALID,0,VALID,102.193,VALID,0,VALID,24.2573,VALID,332,VALID,0,
2010-04-28, 02:41:05,VALID,1011.35,VALID,0,VALID,102.2,VALID,0,VALID,24.2591,VALID,332,VALID,0,
2010-04-28, 02:42:05,VALID,1011.33,VALID,0,VALID,102.2,VALID,0.105969,VALID,24.2591,VALID,332,VALID,0,
2010-04-28, 02:43:05,VALID,1011.32,VALID,0,VALID,102.216,VALID,0.105969,VALID,24.2591,VALID,332,VALID,0,
2010-04-28, 02:44:05,VALID,1011.31,VALID,0,VALID,102.208,VALID,0,VALID,24.2396,VALID,332,VALID,0,
2010-04-28, 02:45:05,VALID,1011.31,VALID,0,VALID,102.223,VALID,0,VALID,24.2591,VALID,332,VALID,0,
2010-04-28, 02:46:05,VALID,1011.29,VALID,0,VALID,102.216,VALID,0.105969,VALID,24.2591,VALID,332,VALID,0,
2010-04-28, 02:47:05,VALID,1011.25,VALID,0,VALID,102.216,VALID,0.105969,VALID,24.2591,VALID,332,VALID,0,
2010-04-28, 02:48:05,VALID,1011.25,VALID,0,VALID,102.238,VALID,0,VALID,24.2591,VALID,332,VALID,0,
2010-04-28, 02:49:05,VALID,1011.25,VALID,0,VALID,102.223,VALID,0,VALID,24.2591,VALID,332,VALID,0,
2010-04-28, 02:50:05,VALID,1011.23,VALID,0,VALID,102.2,VALID,0,VALID,24.2591,VALID,332,VALID,0,
2010-04-28, 02:51:05,VALID,1011.21,VALID,0,VALID,102.208,VALID,0,VALID,24.2573,VALID,332,VALID,0,
2010-04-28, 02:52:05,VALID,1011.22,VALID,0,VALID,102.223,VALID,0,VALID,24.2573,VALID,332,VALID,0,
2010-04-28, 02:53:05,VALID,1011.2,VALID,0,VALID,102.231,VALID,0,VALID,24.2786,VALID,332,VALID,0,
2010-04-28, 02:54:05,VALID,1011.19,VALID,0,VALID,102.261,VALID,0.105969,VALID,24.2378,VALID,332,VALID,0,
2010-04-28, 02:55:05,VALID,1011.2,VALID,0,VALID,102.216,VALID,0.105969,VALID,24.2378,VALID,332,VALID,0,
2010-04-28, 02:56:05,VALID,1011.2,VALID,0,VALID,102.238,VALID,0.105969,VALID,24.2378,VALID,332,VALID,0,
2010-04-28, 02:57:05,VALID,1011.23,VALID,0,VALID,102.231,VALID,0.105969,VALID,24.2378,VALID,332,VALID,0,
2010-04-28, 02:58:05,VALID,1011.21,VALID,0,VALID,102.238,VALID,0.105969,VALID,24.2378,VALID,332,VALID,0,
2010-04-28, 02:59:05,VALID,1011.26,VALID,0,VALID,102.231,VALID,0,VALID,24.2183,VALID,332,VALID,0,
2010-04-28, 03:00:05,VALID,1011.27,VALID,0,VALID,102.223,VALID,0.105969,VALID,24.2396,VALID,332,VALID,0,
2010-04-28, 03:01:05,VALID,1011.26,VALID,0,VALID,102.216,VALID,0,VALID,24.2202,VALID,332,VALID,0,
2010-04-28, 03:02:05,VALID,1011.29,VALID,0,VALID,102.208,VALID,0,VALID,24.2007,VALID,332,VALID,0,
2010-04-28, 03:03:05,VALID,1011.3,VALID,0,VALID,102.231,VALID,0,VALID,24.2025,VALID,332,VALID,0,
2010-04-28, 03:04:05,VALID,1011.29,VALID,0,VALID,102.216,VALID,0,VALID,24.2007,VALID,332,VALID,0,
2010-04-28, 03:05:05,VALID,1011.3,VALID,0,VALID,102.223,VALID,0,VALID,24.1812,VALID,332,VALID,0,
2010-04-28, 03:06:05,VALID,1011.3,VALID,0,VALID,102.2,VALID,0,VALID,24.1812,VALID,332,VALID,0,
2010-04-28, 03:07:05,VALID,1011.3,VALID,0,VALID,102.193,VALID,0,VALID,24.222,VALID,332,VALID,0,
2010-04-28, 03:08:05,VALID,1011.28,VALID,0,VALID,102.2,VALID,0,VALID,24.2202,VALID,332,VALID,0,
2010-04-28, 03:09:05,VALID,1011.27,VALID,0,VALID,102.208,VALID,0,VALID,24.2202,VALID,332,VALID,0,
2010-04-28, 03:10:05,VALID,1011.26,VALID,0,VALID,102.208,VALID,0,VALID,24.2202,VALID,332,VALID,0,
2010-04-28, 03:11:05,VALID,1011.26,VALID,0,VALID,102.2,VALID,0,VALID,24.2396,VALID,332,VALID,0,
2010-04-28, 03:12:05,VALID,1011.25,VALID,0,VALID,102.2,VALID,0,VALID,24.2591,VALID,332,VALID,0,
2010-04-28, 03:13:05,VALID,1011.23,VALID,0,VALID,102.216,VALID,0,VALID,24.3,VALID,332,VALID,0,
2010-04-28, 03:14:05,VALID,1011.2,VALID,0,VALID,102.216,VALID,0,VALID,24.2786,VALID,332,VALID,0,
2010-04-28, 03:15:05,VALID,1011.2,VALID,0,VALID,102.223,VALID,0,VALID,24.2786,VALID,330,VALID,0,
2010-04-28, 03:16:05,VALID,1011.17,VALID,0,VALID,102.208,VALID,0.105969,VALID,24.2981,VALID,330,VALID,0,
2010-04-28, 03:17:05,VALID,1011.15,VALID,0,VALID,102.216,VALID,0.105969,VALID,24.3176,VALID,330,VALID,0,
2010-04-28, 03:18:05,VALID,1011.12,VALID,0,VALID,102.2,VALID,0.105969,VALID,24.2963,VALID,330,VALID,0,
2010-04-28, 03:19:05,VALID,1011.09,VALID,0,VALID,102.2,VALID,0.105969,VALID,24.2963,VALID,330,VALID,0,
2010-04-28, 03:20:05,VALID,1011.07,VALID,0,VALID,102.193,VALID,0,VALID,24.3176,VALID,330,VALID,0,
2010-04-28, 03:21:05,VALID,1011.06,VALID,0,VALID,102.208,VALID,0.105969,VALID,24.2963,VALID,330,VALID,0,
2010-04-28, 03:22:05,VALID,1011.09,VALID,0,VALID,102.185,VALID,0.105969,VALID,24.2963,VALID,330,VALID,0,
2010-04-28, 03:23:05,VALID,1011.04,VALID,0,VALID,102.193,VALID,0,VALID,24.3176,VALID,330,VALID,0,
2010-04-28, 03:24:05,VALID,1011.05,VALID,0,VALID,102.208,VALID,0,VALID,24.2963,VALID,330,VALID,0,
2010-04-28, 03:25:05,VALID,1011.06,VALID,0,VALID,102.185,VALID,0.105969,VALID,24.2963,VALID,330,VALID,0,
2010-04-28, 03:26:05,VALID,1011.03,VALID,0,VALID,102.208,VALID,0,VALID,24.2981,VALID,330,VALID,0,
2010-04-28, 03:27:05,VALID,1011.03,VALID,0,VALID,102.193,VALID,0.105969,VALID,24.2963,VALID,330,VALID,0,
2010-04-28, 03:28:05,VALID,1011,VALID,0,VALID,102.2,VALID,0.105969,VALID,24.2963,VALID,330,VALID,0,
2010-04-28, 03:29:05,VALID,1010.98,VALID,0,VALID,102.231,VALID,0.105969,VALID,24.2768,VALID,330,VALID,0,
2010-04-28, 03:30:05,VALID,1010.99,VALID,0,VALID,102.216,VALID,0.105969,VALID,24.2786,VALID,330,VALID,0,
2010-04-28, 03:31:05,VALID,1010.94,VALID,0,VALID,102.2,VALID,0.105969,VALID,24.2591,VALID,330,VALID,0,
2010-04-28, 03:32:05,VALID,1010.97,VALID,0,VALID,102.231,VALID,0,VALID,24.1988,VALID,330,VALID,0,
2010-04-28, 03:33:05,VALID,1010.95,VALID,0,VALID,102.238,VALID,0.105969,VALID,24.1599,VALID,330,VALID,0,
2010-04-28, 03:34:05,VALID,1010.94,VALID,0,VALID,102.208,VALID,0,VALID,24.1599,VALID,330,VALID,0,
2010-04-28, 03:35:05,VALID,1010.94,VALID,0,VALID,102.208,VALID,0.105969,VALID,24.1617,VALID,330,VALID,0,
2010-04-28, 03:36:05,VALID,1010.93,VALID,0,VALID,102.231,VALID,0.105969,VALID,24.1209,VALID,330,VALID,0,
2010-04-28, 03:37:05,VALID,1010.89,VALID,0,VALID,102.223,VALID,0,VALID,24.1422,VALID,330,VALID,0,
2010-04-28, 03:38:05,VALID,1010.92,VALID,0,VALID,102.223,VALID,0,VALID,24.1209,VALID,330,VALID,0,
2010-04-28, 03:39:05,VALID,1010.91,VALID,0,VALID,102.216,VALID,0.105969,VALID,24.1209,VALID,330,VALID,0,
2010-04-28, 03:40:05,VALID,1010.89,VALID,0,VALID,102.208,VALID,0,VALID,24.1227,VALID,330,VALID,0,
2010-04-28, 03:41:05,VALID,1010.85,VALID,0,VALID,102.216,VALID,0.105969,VALID,24.1014,VALID,330,VALID,0,
2010-04-28, 03:42:05,VALID,1010.86,VALID,0,VALID,102.216,VALID,0,VALID,24.1422,VALID,330,VALID,0,
2010-04-28, 03:43:05,VALID,1010.84,VALID,0,VALID,102.2,VALID,0,VALID,24.1422,VALID,330,VALID,0,
2010-04-28, 03:44:05,VALID,1010.85,VALID,0,VALID,102.231,VALID,0,VALID,24.1422,VALID,330,VALID,0,
2010-04-28, 03:45:05,VALID,1010.83,VALID,0,VALID,102.238,VALID,0.105969,VALID,24.1014,VALID,330,VALID,0,
2010-04-28, 03:46:05,VALID,1010.82,VALID,0,VALID,102.238,VALID,0,VALID,24.1014,VALID,330,VALID,0,
2010-04-28, 03:47:05,VALID,1010.83,VALID,0,VALID,102.223,VALID,0.105969,VALID,24.1014,VALID,330,VALID,0,
2010-04-28, 03:48:05,VALID,1010.82,VALID,0,VALID,102.223,VALID,0.105969,VALID,24.0819,VALID,330,VALID,0,
2010-04-28, 03:49:05,VALID,1010.79,VALID,0,VALID,102.231,VALID,0.105969,VALID,24.1032,VALID,330,VALID,0,
2010-04-28, 03:50:05,VALID,1010.83,VALID,0,VALID,102.246,VALID,0.105969,VALID,24.0643,VALID,330,VALID,0,
2010-04-28, 03:51:05,VALID,1010.79,VALID,0,VALID,102.254,VALID,0.105969,VALID,24.0429,VALID,330,VALID,0,
2010-04-28, 03:52:05,VALID,1010.82,VALID,0,VALID,102.254,VALID,0.105969,VALID,24.0429,VALID,330,VALID,0,
2010-04-28, 03:53:05,VALID,1010.83,VALID,0,VALID,102.238,VALID,0,VALID,24.0448,VALID,330,VALID,0,
2010-04-28, 03:54:05,VALID,1010.84,VALID,0,VALID,102.261,VALID,0,VALID,24.0448,VALID,330,VALID,0,
2010-04-28, 03:55:05,VALID,1010.82,VALID,0,VALID,102.254,VALID,0,VALID,24.0253,VALID,330,VALID,0,